Ely, MN

2:35 AM CDT on July 27, 2017 (GMT -0500)
Ely Municipal

Weather History for KELO - May, 2012

Change the Weather History Date:

Tuesday, May 15, 2012

  Actual Average Record
Temperature  
Mean Temperature 50 °F -  
Max Temperature 57 °F 59 °F 84 °F (1998)
Min Temperature 42 °F 35 °F 24 °F (2004)
Degree Days  
Heating Degree Days 16    
Moisture  
Dew Point 34 °F    
Average Humidity 50    
Maximum Humidity 76    
Minimum Humidity 29    
Precipitation  
Precipitation 0.00 in - - ()
Sea Level Pressure  
Sea Level Pressure 29.88 in    
Wind  
Wind Speed 7 mph (NW)    
Max Wind Speed 17 mph    
Max Gust Speed 28 mph    
Visibility 10 miles    
Events      
Averages and records for this station are not official NWS values.
T = Trace of Precipitation, MM = Missing Value Source: NWS Daily Summary

Daily Weather History Graph

Daily Weather History Graph

Search for Another Location

Airport or City:

Trip Planner

Search our weather history database for the weather conditions in past years. The results will help you decide how hot, cold, wet, or windy it might be!

Date:

Astronomy

May. 15, 2012 Rise Set
Actual Time 5:28 AM CDT 8:39 PM CDT
Civil Twilight 4:51 AM CDT 9:16 PM CDT
Nautical Twilight 4:03 AM CDT 10:05 PM CDT
Astronomical Twilight 3:03 AM CDT 11:06 PM CDT
Moon 2:51 AM CDT (5/15) 3:39 PM CDT (5/15)
Length of Visible Light 16h 25m
Length of Day
15h 11m
Waning Crescent, 23% of the Moon is Illuminated
May 15
Waning Crescent
May 20
New
May 28
First Quarter
Jun 4
Full
Jun 11
Last Quarter

Hourly Weather History & Observations

Time (CDT) Temp. Windchill Dew Point Humidity Pressure Visibility Wind Dir Wind Speed Gust Speed Precip Events Conditions
12:12 AM 53.6 °F - 42.8 °F 67% 29.73 in 10.0 mi Calm Calm - N/A   Clear
12:32 AM 50.0 °F - 41.0 °F 71% 29.72 in 10.0 mi Calm Calm - N/A   Clear
12:53 AM 55.4 °F - 41.0 °F 58% 29.72 in 10.0 mi Calm Calm - N/A   Clear
1:12 AM 53.6 °F - 41.0 °F 62% 29.71 in 10.0 mi Calm Calm - N/A   Clear
1:33 AM 53.6 °F - 41.0 °F 62% 29.72 in 10.0 mi NW 5.8 mph - N/A   Clear
1:52 AM 55.4 °F - 39.2 °F 54% 29.74 in 10.0 mi West 3.5 mph - N/A   Clear
2:13 AM 57.2 °F - 39.2 °F 51% 29.73 in 10.0 mi Calm Calm - N/A   Clear
2:32 AM 53.6 °F - 41.0 °F 62% 29.70 in 10.0 mi South 4.6 mph - N/A   Clear
2:53 AM 51.8 °F - 39.2 °F 62% 29.70 in 10.0 mi SSW 5.8 mph - N/A   Clear
3:12 AM 51.8 °F - 39.2 °F 62% 29.69 in 10.0 mi South 4.6 mph - N/A   Scattered Clouds
3:33 AM 51.8 °F - 39.2 °F 62% 29.69 in 10.0 mi Calm Calm - N/A   Clear
3:53 AM 48.2 °F - 41.0 °F 76% 29.70 in 10.0 mi West 4.6 mph - N/A   Clear
4:12 AM 51.8 °F - 41.0 °F 67% 29.71 in 10.0 mi West 3.5 mph - N/A   Scattered Clouds
4:33 AM 51.8 °F - 41.0 °F 67% 29.71 in 10.0 mi West 6.9 mph - N/A   Scattered Clouds
4:52 AM 53.6 °F - 39.2 °F 58% 29.72 in 10.0 mi West 8.1 mph - N/A   Scattered Clouds
5:13 AM 53.6 °F - 39.2 °F 58% 29.72 in 10.0 mi WSW 6.9 mph - N/A   Clear
5:32 AM 55.4 °F - 39.2 °F 54% 29.74 in 10.0 mi WNW 10.4 mph 25.3 mph N/A   Clear
5:53 AM 53.6 °F - 39.2 °F 58% 29.75 in 10.0 mi WNW 8.1 mph 17.3 mph N/A   Clear
6:13 AM 53.6 °F - 39.2 °F 58% 29.75 in 10.0 mi WNW 6.9 mph - N/A   Clear
6:32 AM 53.6 °F - 41.0 °F 62% 29.76 in 10.0 mi WNW 8.1 mph 16.1 mph N/A   Clear
6:53 AM 53.6 °F - 41.0 °F 62% 29.78 in 10.0 mi West 11.5 mph 18.4 mph N/A   Clear
7:13 AM 53.6 °F - 42.8 °F 67% 29.78 in 10.0 mi WNW 10.4 mph 18.4 mph N/A   Clear
7:32 AM 55.4 °F - 42.8 °F 63% 29.79 in 10.0 mi NW 10.4 mph 17.3 mph N/A   Clear
7:53 AM 55.4 °F - 42.8 °F 63% 29.81 in 10.0 mi NW 12.7 mph 20.7 mph N/A   Scattered Clouds
8:12 AM 53.6 °F - 42.8 °F 67% 29.82 in 10.0 mi WNW 15.0 mph 20.7 mph N/A   Scattered Clouds
8:32 AM 55.4 °F - 42.8 °F 63% 29.83 in 10.0 mi WNW 16.1 mph 26.5 mph N/A   Scattered Clouds
8:53 AM 53.6 °F - 42.8 °F 67% 29.84 in 10.0 mi NW 15.0 mph 24.2 mph N/A   Scattered Clouds
9:13 AM 53.6 °F - 41.0 °F 62% 29.85 in 10.0 mi NW 15.0 mph 21.9 mph N/A   Scattered Clouds
9:32 AM 53.6 °F - 41.0 °F 62% 29.86 in 10.0 mi NW 15.0 mph 23.0 mph N/A   Scattered Clouds
9:53 AM 55.4 °F - 41.0 °F 58% 29.86 in 10.0 mi NW 13.8 mph 20.7 mph N/A   Mostly Cloudy
10:13 AM 55.4 °F - 39.2 °F 54% 29.88 in 10.0 mi NW 12.7 mph 26.5 mph N/A   Mostly Cloudy
10:32 AM 55.4 °F - 37.4 °F 51% 29.89 in 10.0 mi NNW 15.0 mph 27.6 mph N/A   Scattered Clouds
10:53 AM 53.6 °F - 37.4 °F 54% 29.90 in 10.0 mi North 9.2 mph 25.3 mph N/A   Mostly Cloudy
11:13 AM 55.4 °F - 37.4 °F 51% 29.90 in 10.0 mi NNW 9.2 mph 21.9 mph N/A   Mostly Cloudy
11:32 AM 55.4 °F - 35.6 °F 47% 29.90 in 10.0 mi NW 11.5 mph 23.0 mph N/A   Overcast
11:53 AM 55.4 °F - 35.6 °F 47% 29.91 in 10.0 mi NW 13.8 mph 25.3 mph N/A   Overcast
12:13 PM 55.4 °F - 37.4 °F 51% 29.92 in 10.0 mi NNW 13.8 mph 26.5 mph N/A   Overcast
12:32 PM 53.6 °F - 37.4 °F 54% 29.93 in 10.0 mi NW 17.3 mph 27.6 mph N/A   Overcast
12:53 PM 55.4 °F - 35.6 °F 47% 29.93 in 10.0 mi NW 15.0 mph 24.2 mph N/A   Overcast
1:13 PM 55.4 °F - 35.6 °F 47% 29.94 in 10.0 mi NW 15.0 mph 26.5 mph N/A   Overcast
1:32 PM 55.4 °F - 35.6 °F 47% 29.94 in 10.0 mi NW 11.5 mph 23.0 mph N/A   Mostly Cloudy
1:53 PM 53.6 °F - 33.8 °F 47% 29.95 in 10.0 mi NNW 9.2 mph 25.3 mph N/A   Mostly Cloudy
2:13 PM 53.6 °F - 33.8 °F 47% 29.95 in 10.0 mi NW 11.5 mph 19.6 mph N/A   Overcast
2:32 PM 55.4 °F - 33.8 °F 44% 29.95 in 10.0 mi NNW 9.2 mph 18.4 mph N/A   Mostly Cloudy
2:53 PM 55.4 °F - 32.0 °F 41% 29.96 in 10.0 mi NW 12.7 mph 20.7 mph N/A   Mostly Cloudy
3:13 PM 55.4 °F - 30.2 °F 38% 29.96 in 10.0 mi NW 8.1 mph 19.6 mph N/A   Overcast
3:32 PM 57.2 °F - 30.2 °F 36% 29.96 in 10.0 mi North 6.9 mph 21.9 mph N/A   Mostly Cloudy
3:53 PM 55.4 °F - 28.4 °F 36% 29.97 in 10.0 mi NNW 9.2 mph 19.6 mph N/A   Overcast
4:13 PM 55.4 °F - 26.6 °F 33% 29.97 in 10.0 mi NNW 8.1 mph - N/A   Mostly Cloudy
4:32 PM 57.2 °F - 26.6 °F 31% 29.97 in 10.0 mi NNW 8.1 mph 23.0 mph N/A   Mostly Cloudy
4:53 PM 57.2 °F - 26.6 °F 31% 29.97 in 10.0 mi NNW 9.2 mph 24.2 mph N/A   Mostly Cloudy
5:13 PM 57.2 °F - 24.8 °F 29% 29.98 in 10.0 mi North 8.1 mph 20.7 mph N/A   Overcast
5:32 PM 57.2 °F - 24.8 °F 29% 29.98 in 10.0 mi NW 12.7 mph 20.7 mph N/A   Mostly Cloudy
5:53 PM 57.2 °F - 24.8 °F 29% 29.98 in 10.0 mi NNW 6.9 mph 18.4 mph N/A   Mostly Cloudy
6:12 PM 57.2 °F - 24.8 °F 29% 29.98 in 10.0 mi WNW 11.5 mph 24.2 mph N/A   Mostly Cloudy
6:32 PM 55.4 °F - 24.8 °F 31% 29.99 in 10.0 mi NW 11.5 mph 19.6 mph N/A   Scattered Clouds
6:53 PM 55.4 °F - 24.8 °F 31% 29.99 in 10.0 mi NW 11.5 mph 19.6 mph N/A   Clear
7:12 PM 55.4 °F - 24.8 °F 31% 30.00 in 10.0 mi WNW 11.5 mph 17.3 mph N/A   Clear
7:32 PM 55.4 °F - 24.8 °F 31% 30.00 in 10.0 mi NW 8.1 mph - N/A   Scattered Clouds
7:53 PM 53.6 °F - 24.8 °F 33% 30.01 in 10.0 mi WNW 9.2 mph 20.7 mph N/A   Mostly Cloudy
8:12 PM 53.6 °F - 24.8 °F 33% 30.01 in 10.0 mi WNW 8.1 mph - N/A   Scattered Clouds
8:33 PM 51.8 °F - 24.8 °F 35% 30.02 in 10.0 mi WNW 6.9 mph - N/A   Scattered Clouds
8:52 PM 51.8 °F - 24.8 °F 35% 30.02 in 10.0 mi WNW 6.9 mph - N/A   Scattered Clouds
9:12 PM 48.2 °F - 26.6 °F 43% 30.02 in 10.0 mi WNW 5.8 mph - N/A   Scattered Clouds
9:33 PM 48.2 °F - 26.6 °F 43% 30.03 in 10.0 mi WNW 4.6 mph - N/A   Scattered Clouds
9:52 PM 46.4 °F 43.5 °F 26.6 °F 46% 30.04 in 10.0 mi WNW 5.8 mph - N/A   Scattered Clouds
10:13 PM 46.4 °F 43.5 °F 26.6 °F 46% 30.04 in 10.0 mi WNW 5.8 mph - N/A   Scattered Clouds
10:32 PM 46.4 °F 44.3 °F 26.6 °F 46% 30.05 in 10.0 mi WNW 4.6 mph - N/A   Clear
10:53 PM 44.6 °F 42.2 °F 26.6 °F 49% 30.05 in 10.0 mi WNW 4.6 mph - N/A   Clear
11:12 PM 44.6 °F 42.2 °F 26.6 °F 49% 30.05 in 10.0 mi WNW 4.6 mph - N/A   Clear
11:33 PM 42.8 °F 40.1 °F 28.4 °F 57% 30.05 in 10.0 mi WNW 4.6 mph - N/A   Clear
11:53 PM 42.8 °F 39.3 °F 28.4 °F 57% 30.05 in 10.0 mi WNW 5.8 mph - N/A   Clear